map of UIO home
Great Circle Mapper logo
UIO - Airport
Location
City:  Quito, Pichincha, Ecuador
Near (Alt.):Tababela
Name:Mitad del Mundo International Airport
ICAO / IATA:SEQM / UIO

Details
Type:Airport (Aerodrome, Airfield)
Use:Public/Civil, International (customs port of entry)
Latitude:006'48"S (-0.113332)
Longitude:7821'31"W (-78.358610)
Elevation:7874 ft (2400 m)
Runways:1
Longest:13451 ft (4100 m), paved

Weather
METAR:SEQM 231900Z 01010KT 9999 VCSH BKN030 SCT100 18/13 Q1024 NOSIG RMK A3024
TAF:SEQM 230930Z 2312/2412 VRB03KT 9999 SCT026 SCT100
TEMPO 2312/2313 6000 BCFG FEW005 BKN020
FM231800 35012KT 9999 VCSH BKN030 SCT100
FM240000 03003KT 8000 BCFG FEW006 BKN023
FM240400 00000KT 3000 BR SCT005 BKN020 TX24/2319Z TN12/2411Z

Related Locations
Nearby:
Farthest:PKU: 12437 mi / 20015 km
Pekanbaru [Sultan Syarif Kasim II (Simpang Tiga)], Riau, ID

Find:

   beyond  
but within

Other Information
Maps:
NOTAMs:
Links:
Sources:

  
flag of Ecuador   

Sectional Chart

Flight Planning
at skyvector.com

Satellite Image

Google Maps Satellite View

 

Copyright © 2004-2014 Karl L. Swartz. All rights reserved.
The Great Circle Mapper name and logo are trademarks of the Great Circle Mapper.
All other trademarks mentioned herein belong to their respective owners.
Please see credits for attibutions and further copyright information.

  Follow gcmap on Facebook Follow gcmap on Twitter

hCard Microformat

Geo Microformat